| time (UTC) | temp C | wind direction | speed KPH | gust KPH | rain 1hr cm | rain 24hr cm | rain mn cm | humidity % | barometer mb |
| 20260906150511 | 31 | 153 | 4.8 | 12.9 | 0.00 | 0.00 | 0.00 | 72 | 1003.6 |
| 20260906150014 | 31 | 146 | 6.4 | 14.5 | 0.00 | 0.00 | 0.00 | 73 | 1003.5 |
| 20260906150010 | 30 | 108 | 6.4 | 16.1 | 0.00 | 0.00 | 0.00 | 73 | 1003.4 |
| 20260906145009 | 30 | 58 | 8.0 | 16.1 | 0.00 | 0.00 | 0.00 | 72 | 1003.4 |
| 20260906144509 | 30 | 56 | 9.7 | 20.9 | 0.00 | 0.00 | 0.00 | 73 | 1003.4 |
| 20260906144009 | 30 | 97 | 8.0 | 20.9 | 0.00 | 0.00 | 0.00 | 72 | 1003.4 |
| 20260906143503 | 30 | 108 | 6.4 | 16.1 | 0.00 | 0.00 | 0.00 | 72 | 1003.3 |
| 20260906142957 | 30 | 129 | 6.4 | 16.1 | 0.00 | 0.00 | 0.00 | 73 | 1003.4 |
| 20260906142451 | 30 | 105 | 6.4 | 14.5 | 0.00 | 0.00 | 0.00 | 73 | 1003.4 |
| 20260906141945 | 30 | 105 | 6.4 | 14.5 | 0.00 | 0.00 | 0.00 | 73 | 1003.4 |
| 20260906141439 | 30 | 135 | 6.4 | 14.5 | 0.00 | 0.00 | 0.00 | 74 | 1003.4 |
| 20260906141203 | 30 | 70 | 6.4 | 16.1 | 0.00 | 0.00 | 0.00 | 73 | 1003.4 |
| 20260906140703 | 29 | 162 | 6.4 | 16.1 | 0.00 | 0.00 | 0.00 | 74 | 1003.3 |
| 20260906140204 | 29 | 110 | 6.4 | 12.9 | 0.00 | 0.00 | 0.00 | 73 | 1003.3 |
| 20260906135705 | 29 | 50 | 8.0 | 14.5 | 0.00 | 0.00 | 0.00 | 74 | 1003.3 |
| 20260906134933 | 29 | 68 | 6.4 | 14.5 | 0.00 | 0.00 | 0.00 | 74 | 1003.3 |
| 20260906134433 | 29 | 125 | 6.4 | 16.1 | 0.00 | 0.00 | 0.00 | 74 | 1003.3 |
| 20260906133931 | 28 | 57 | 6.4 | 16.1 | 0.00 | 0.00 | 0.00 | 74 | 1003.3 |
| 20260906133431 | 28 | 142 | 6.4 | 12.9 | 0.00 | 0.00 | 0.00 | 74 | 1003.2 |
| 20260906132931 | 28 | 51 | 4.8 | 11.3 | 0.00 | 0.00 | 0.00 | 75 | 1003.3 |
| 20260906132430 | 28 | 37 | 4.8 | 9.7 | 0.00 | 0.00 | 0.00 | 75 | 1003.3 |
| 20260906131929 | 28 | 70 | 4.8 | 9.7 | 0.00 | 0.00 | 0.00 | 75 | 1003.3 |
| 20260906131429 | 28 | 20 | 4.8 | 9.7 | 0.00 | 0.00 | 0.00 | 76 | 1003.3 |
| 20260906130927 | 28 | 37 | 4.8 | 9.7 | 0.00 | 0.00 | 0.00 | 76 | 1003.3 |
| 20260906130425 | 27 | 9 | 4.8 | 6.4 | 0.00 | 0.00 | 0.00 | 76 | 1003.2 |
| 20260906125925 | 27 | 29 | 3.2 | 6.4 | 0.00 | 0.00 | 0.00 | 76 | 1003.2 |
| 20260906125425 | 27 | 30 | 3.2 | 6.4 | 0.00 | 0.00 | 0.00 | 76 | 1003.3 |
| 20260906124925 | 27 | 30 | 3.2 | 6.4 | 0.00 | 0.00 | 0.00 | 77 | 1003.3 |
| 20260906124425 | 27 | 34 | 1.6 | 6.4 | 0.00 | 0.00 | 0.00 | 77 | 1003.4 |
| 20260906124149 | 27 | 27 | 1.6 | 4.8 | 0.00 | 0.00 | 0.00 | 77 | 1003.3 |
| 20260906123648 | 27 | 42 | 3.2 | 6.4 | 0.00 | 0.00 | 0.00 | 77 | 1003.2 |
| 20260906123147 | 26 | 37 | 3.2 | 6.4 | 0.00 | 0.00 | 0.00 | 78 | 1003.1 |
| 20260906122415 | 26 | 35 | 4.8 | 8.0 | 0.00 | 0.00 | 0.00 | 78 | 1002.9 |
| 20260906121915 | 26 | 18 | 3.2 | 8.0 | 0.00 | 0.00 | 0.00 | 78 | 1002.7 |
| 20260906121646 | 26 | 22 | 0.0 | 6.4 | 0.00 | 0.00 | 0.00 | 78 | 1002.7 |
| 20260906120913 | -17 | 37 | 0.0 | 0.0 | 0.00 | 0.00 | 0.00 | 1002.6 | |
| 20260906120411 | -17 | 0.0 | 0.0 | 0.00 | 0.00 | 0.00 | 1002.6 | ||
| 20260906120050 | -17 | 0.0 | 0.0 | 0.00 | 0.00 | 0.00 | 1002.5 | ||
| 20260906115547 | -17 | 0.0 | 0.0 | 0.00 | 0.00 | 0.00 | 1002.5 | ||
| 20260906114727 | -17 | 0.0 | 0.0 | 0.00 | 0.00 | 0.00 | 1002.3 | ||
| 20260906114217 | -17 | 0.0 | 0.0 | 0.00 | 0.00 | 0.00 | 1002.2 | ||
| 20260906113715 | -17 | 0.0 | 0.0 | 0.00 | 0.00 | 0.00 | 1002.1 | ||
| 20260906113120 | -17 | 0.0 | 0.0 | 0.00 | 0.00 | 0.00 | 1002.1 | ||
| 20260906112617 | -17 | 0.0 | 0.0 | 0.00 | 0.00 | 0.00 | 1002.1 | ||
| 20260906112024 | -17 | 0.0 | 0.0 | 0.00 | 0.00 | 0.00 | 1002.0 | ||
| 20260906111511 | -17 | 0.0 | 0.0 | 0.00 | 0.00 | 0.00 | 1001.9 | ||
| 20260906110919 | -17 | 0.0 | 0.0 | 0.00 | 0.00 | 0.00 | 1001.9 | ||
| 20260906110417 | -17 | 0.0 | 0.0 | 0.00 | 0.00 | 0.00 | 1001.8 | ||
| 20260906105825 | -17 | 0.0 | 0.0 | 0.00 | 0.00 | 0.00 | 1001.9 | ||
| 20260906105315 | -17 | 0.0 | 0.0 | 0.00 | 0.00 | 0.00 | 1001.9 | ||
| 20260906104815 | -17 | 0.0 | 0.0 | 0.00 | 0.00 | 0.00 | 1001.8 | ||
| 20260906104221 | -17 | 0.0 | 0.0 | 0.00 | 0.00 | 0.00 | 1001.8 | ||
| 20260906103719 | -17 | 32 | 0.0 | 0.0 | 0.00 | 0.00 | 0.00 | 1001.9 | |
| 20260906103126 | 26 | 32 | 0.0 | 0.0 | 0.00 | 0.00 | 0.00 | 78 | 1002.0 |
| 20260906102617 | 26 | 32 | 0.0 | 0.0 | 0.00 | 0.00 | 0.00 | 78 | 1001.9 |
| 20260906102116 | 26 | 25 | 0.0 | 3.2 | 0.00 | 0.00 | 0.00 | 78 | 1001.9 |
| 20260906101614 | 26 | 39 | 0.0 | 3.2 | 0.00 | 0.00 | 0.00 | 77 | 1001.9 |
| 20260906101115 | 26 | 37 | 0.0 | 0.0 | 0.00 | 0.00 | 0.00 | 78 | 1001.8 |
| 20260906100610 | 26 | 47 | 0.0 | 0.0 | 0.00 | 0.00 | 0.00 | 78 | 1001.8 |
| 20260906100111 | 26 | 34 | 0.0 | 0.0 | 0.00 | 0.00 | 0.00 | 77 | 1001.8 |
| 20260906095608 | 26 | 34 | 0.0 | 0.0 | 0.00 | 0.00 | 0.00 | 77 | 1001.7 |
| 20260906095339 | 26 | 39 | 0.0 | 0.0 | 0.00 | 0.00 | 0.00 | 77 | 1001.6 |
| 20260906094609 | 26 | 47 | 0.0 | 0.0 | 0.00 | 0.00 | 0.00 | 77 | 1001.6 |
| 20260906094108 | 26 | 32 | 0.0 | 0.0 | 0.00 | 0.00 | 0.00 | 77 | 1001.6 |
| 20260906093839 | 26 | 25 | 0.0 | 0.0 | 0.00 | 0.00 | 0.00 | 77 | 1001.6 |
| 20260906093108 | 26 | 35 | 0.0 | 1.6 | 0.00 | 0.00 | 0.00 | 77 | 1001.6 |
| 20260906092609 | 26 | 23 | 0.0 | 3.2 | 0.00 | 0.00 | 0.00 | 77 | 1001.6 |
| 20260906092108 | 26 | 31 | 1.6 | 4.8 | 0.00 | 0.00 | 0.00 | 76 | 1001.6 |
| 20260906091613 | 26 | 51 | 1.6 | 6.4 | 0.00 | 0.00 | 0.00 | 75 | 1001.6 |
| 20260906091609 | 26 | 29 | 1.6 | 4.8 | 0.00 | 0.00 | 0.00 | 75 | 1001.7 |
| 20260906090608 | 26 | 29 | 3.2 | 6.4 | 0.00 | 0.00 | 0.00 | 75 | 1001.5 |
| 20260906090109 | 26 | 19 | 1.6 | 4.8 | 0.00 | 0.00 | 0.00 | 75 | 1001.5 |
| 20260906085840 | 26 | 30 | 1.6 | 4.8 | 0.00 | 0.00 | 0.00 | 75 | 1001.6 |
| 20260906085105 | 26 | 36 | 3.2 | 6.4 | 0.00 | 0.00 | 0.00 | 75 | 1001.6 |
| 20260906084605 | 26 | 28 | 3.2 | 6.4 | 0.00 | 0.00 | 0.00 | 75 | 1001.5 |
| 20260906084105 | 26 | 30 | 3.2 | 6.4 | 0.00 | 0.00 | 0.00 | 75 | 1001.5 |
| 20260906083605 | 26 | 20 | 3.2 | 6.4 | 0.00 | 0.00 | 0.00 | 75 | 1001.4 |
| 20260906083104 | 26 | 31 | 1.6 | 6.4 | 0.00 | 0.00 | 0.00 | 75 | 1001.5 |
| 20260906082605 | 26 | 28 | 0.0 | 4.8 | 0.00 | 0.00 | 0.00 | 76 | 1001.5 |
| 20260906082335 | 26 | 61 | 0.0 | 0.0 | 0.00 | 0.00 | 0.00 | 77 | 1001.5 |
| 20260906081605 | 26 | 94 | 0.0 | 0.0 | 0.00 | 0.00 | 0.00 | 77 | 1001.5 |
| 20260906081105 | 26 | 94 | 0.0 | 0.0 | 0.00 | 0.00 | 0.00 | 77 | 1001.5 |
| 20260906080831 | 26 | 94 | 0.0 | 0.0 | 0.00 | 0.00 | 0.00 | 77 | 1001.5 |
| 20260906075600 | 26 | 94 | 0.0 | 0.0 | 0.00 | 0.00 | 0.00 | 76 | 1001.4 |
| 20260906075101 | 27 | 94 | 0.0 | 0.0 | 0.00 | 0.00 | 0.00 | 75 | 1001.4 |
| 20260906074600 | 27 | 94 | 0.0 | 0.0 | 0.00 | 0.00 | 0.00 | 75 | 1001.4 |
| 20260906074331 | 27 | 94 | 0.0 | 0.0 | 0.00 | 0.00 | 0.00 | 74 | 1001.5 |
| 20260906073831 | 27 | 105 | 0.0 | 0.0 | 0.00 | 0.00 | 0.00 | 74 | 1001.4 |
| 20260906073101 | 27 | 105 | 0.0 | 0.0 | 0.00 | 0.00 | 0.00 | 74 | 1001.4 |
| 20260906072601 | 27 | 105 | 0.0 | 0.0 | 0.00 | 0.00 | 0.00 | 74 | 1001.5 |
| 20260906072101 | 27 | 106 | 0.0 | 0.0 | 0.00 | 0.00 | 0.00 | 73 | 1001.4 |
| 20260906071601 | 27 | 106 | 1.6 | 4.8 | 0.00 | 0.00 | 0.00 | 73 | 1001.5 |
| 20260906071100 | 27 | 106 | 1.6 | 4.8 | 0.00 | 0.00 | 0.00 | 73 | 1001.5 |
| 20260906070559 | 28 | 103 | 0.0 | 4.8 | 0.00 | 0.00 | 0.00 | 70 | 1001.5 |
| 20260906070058 | 28 | 15 | 0.0 | 0.0 | 0.00 | 0.00 | 0.00 | 69 | 1001.5 |
| 20260906065557 | 28 | 15 | 0.0 | 0.0 | 0.00 | 0.00 | 0.00 | 70 | 1001.5 |
| 20260906065054 | 28 | 14 | 0.0 | 0.0 | 0.00 | 0.00 | 0.00 | 69 | 1001.6 |
| 20260906064823 | 28 | 14 | 0.0 | 0.0 | 0.00 | 0.00 | 0.00 | 69 | 1001.5 |
| 20260906064050 | 28 | 21 | 0.0 | 0.0 | 0.00 | 0.00 | 0.00 | 68 | 1001.5 |
| 20260906063548 | 28 | 18 | 0.0 | 0.0 | 0.00 | 0.00 | 0.00 | 68 | 1001.6 |
| 20260906063046 | 28 | 348 | 0.0 | 0.0 | 0.00 | 0.00 | 0.00 | 68 | 1001.7 |
| 20260906062544 | 28 | 1 | 0.0 | 0.0 | 0.00 | 0.00 | 0.00 | 68 | 1001.7 |
| 20260906062043 | 28 | 359 | 0.0 | 0.0 | 0.00 | 0.00 | 0.00 | 68 | 1001.7 |
| 20260906061540 | 28 | 1 | 0.0 | 0.0 | 0.00 | 0.00 | 0.00 | 68 | 1001.7 |
| 20260906061309 | 28 | 15 | 0.0 | 1.6 | 0.00 | 0.00 | 0.00 | 68 | 1001.7 |
| 20260906060538 | 28 | 24 | 0.0 | 4.8 | 0.00 | 0.00 | 0.00 | 68 | 1001.7 |
| 20260906060031 | 28 | 18 | 0.0 | 4.8 | 0.00 | 0.00 | 0.00 | 68 | 1001.7 |
| 20260906055526 | 28 | 16 | 0.0 | 4.8 | 0.00 | 0.00 | 0.00 | 68 | 1001.7 |
| 20260906055019 | 28 | 11 | 0.0 | 4.8 | 0.00 | 0.00 | 0.00 | 68 | 1001.8 |
| 20260906054514 | 28 | 11 | 0.0 | 0.0 | 0.00 | 0.00 | 0.00 | 69 | 1001.7 |
| 20260906054007 | 28 | 11 | 0.0 | 0.0 | 0.00 | 0.00 | 0.00 | 69 | 1001.8 |
| 20260906053501 | 28 | 18 | 0.0 | 0.0 | 0.00 | 0.00 | 0.00 | 69 | 1001.8 |
| 20260906052956 | 28 | 32 | 1.6 | 3.2 | 0.00 | 0.00 | 0.00 | 70 | 1001.8 |
| 20260906052450 | 28 | 12 | 1.6 | 6.4 | 0.00 | 0.00 | 0.00 | 70 | 1001.8 |
| 20260906051945 | 28 | 30 | 1.6 | 6.4 | 0.00 | 0.00 | 0.00 | 71 | 1001.7 |
| 20260906051438 | 28 | 27 | 0.0 | 3.2 | 0.00 | 0.00 | 0.00 | 72 | 1001.7 |
| 20260906051203 | 28 | 301 | 0.0 | 1.6 | 0.00 | 0.00 | 0.00 | 72 | 1001.6 |
| 20260906050928 | 28 | 297 | 0.0 | 0.0 | 0.00 | 0.00 | 0.00 | 72 | 1001.6 |
| 20260906045920 | 28 | 293 | 0.0 | 0.0 | 0.00 | 0.00 | 0.00 | 73 | 1001.6 |
| 20260906045653 | 28 | 291 | 0.0 | 1.6 | 0.00 | 0.00 | 0.00 | 73 | 1001.6 |
| 20260906044921 | 28 | 290 | 0.0 | 3.2 | 0.00 | 0.00 | 0.00 | 72 | 1001.6 |
| 20260906044421 | 28 | 274 | 0.0 | 3.2 | 0.00 | 0.00 | 0.00 | 71 | 1001.5 |
| 20260906043922 | 29 | 253 | 0.0 | 1.6 | 0.00 | 0.00 | 0.00 | 70 | 1001.4 |
| 20260906043421 | 30 | 251 | 0.0 | 0.0 | 0.00 | 0.00 | 0.00 | 68 | 1001.3 |
| 20260906042925 | 30 | 251 | 0.0 | 1.6 | 0.00 | 0.00 | 0.00 | 67 | 1001.4 |
| 20260906042921 | 30 | 251 | 0.0 | 1.6 | 0.00 | 0.00 | 0.00 | 67 | 1001.4 |
| 20260906042153 | 30 | 251 | 0.0 | 0.0 | 0.00 | 0.00 | 0.00 | 66 | 1001.4 |
| 20260906041421 | 31 | 251 | 0.0 | 0.0 | 0.00 | 0.00 | 0.00 | 65 | 1001.4 |
| 20260906040921 | 31 | 251 | 0.0 | 0.0 | 0.00 | 0.00 | 0.00 | 64 | 1001.4 |
| 20260906040651 | 31 | 251 | 0.0 | 0.0 | 0.00 | 0.00 | 0.00 | 64 | 1001.4 |
| 20260906035920 | 31 | 251 | 0.0 | 0.0 | 0.00 | 0.00 | 0.00 | 64 | 1001.5 |
| 20260906035421 | 31 | 251 | 0.0 | 0.0 | 0.00 | 0.00 | 0.00 | 64 | 1001.4 |
| 20260906035152 | 31 | 251 | 0.0 | 0.0 | 0.00 | 0.00 | 0.00 | 65 | 1001.5 |
| 20260906034652 | 31 | 251 | 0.0 | 0.0 | 0.00 | 0.00 | 0.00 | 64 | 1001.5 |
| 20260906033918 | 31 | 251 | 0.0 | 0.0 | 0.00 | 0.00 | 0.00 | 64 | 1001.7 |
| 20260906033420 | 31 | 251 | 0.0 | 0.0 | 0.00 | 0.00 | 0.00 | 63 | 1001.6 |
| 20260906032919 | 31 | 251 | 0.0 | 0.0 | 0.00 | 0.00 | 0.00 | 63 | 1001.6 |
| 20260906032419 | 31 | 251 | 0.0 | 0.0 | 0.00 | 0.00 | 0.00 | 62 | 1001.7 |
| 20260906031919 | 31 | 251 | 0.0 | 0.0 | 0.00 | 0.00 | 0.00 | 62 | 1001.7 |
| 20260906031419 | 31 | 251 | 0.0 | 0.0 | 0.00 | 0.00 | 0.00 | 62 | 1001.7 |
| 20260906030919 | 31 | 251 | 0.0 | 3.2 | 0.00 | 0.00 | 0.00 | 62 | 1001.6 |
| 20260906030419 | 31 | 251 | 0.0 | 3.2 | 0.00 | 0.00 | 0.00 | 62 | 1001.7 |
| 20260906025918 | 31 | 236 | 0.0 | 0.0 | 0.00 | 0.00 | 0.00 | 63 | 1001.6 |
| 20260906025647 | 31 | 236 | 0.0 | 0.0 | 0.00 | 0.00 | 0.00 | 63 | 1001.7 |
| 20260906024916 | 31 | 236 | 0.0 | 0.0 | 0.00 | 0.00 | 0.00 | 63 | 1001.6 |
| 20260906024417 | 31 | 236 | 0.0 | 0.0 | 0.00 | 0.00 | 0.00 | 62 | 1001.5 |
| 20260906023914 | 31 | 236 | 0.0 | 0.0 | 0.00 | 0.00 | 0.00 | 62 | 1001.6 |
| 20260906023413 | 31 | 237 | 0.0 | 0.0 | 0.00 | 0.00 | 0.00 | 63 | 1001.5 |
| 20260906022913 | 31 | 238 | 0.0 | 0.0 | 0.00 | 0.00 | 0.00 | 62 | 1001.5 |
| 20260906022412 | 31 | 237 | 0.0 | 0.0 | 0.00 | 0.00 | 0.00 | 62 | 1001.5 |
| 20260906022143 | 31 | 238 | 0.0 | 0.0 | 0.00 | 0.00 | 0.00 | 62 | 1001.3 |
| 20260906021408 | 31 | 238 | 0.0 | 0.0 | 0.00 | 0.00 | 0.00 | 62 | 1001.1 |
| 20260906020909 | 31 | 238 | 0.0 | 1.6 | 0.00 | 0.00 | 0.00 | 63 | 1000.9 |
| 20260906020408 | 31 | 237 | 1.6 | 12.9 | 0.00 | 0.00 | 0.00 | 63 | 1001.0 |
| 20260906020140 | 31 | 214 | 1.6 | 14.5 | 0.00 | 0.00 | 0.00 | 63 | 1000.9 |
| 20260906015409 | 32 | 212 | 0.0 | 14.5 | 0.00 | 0.00 | 0.00 | 59 | 1000.6 |
| 20260906014908 | 32 | 166 | 0.0 | 0.0 | 0.00 | 0.00 | 0.00 | 59 | 1000.5 |
| 20260906014408 | 31 | 166 | 0.0 | 0.0 | 0.00 | 0.00 | 0.00 | 59 | 1000.5 |
| 20260906013908 | 31 | 165 | 0.0 | 0.0 | 0.00 | 0.00 | 0.00 | 60 | 1000.6 |
| 20260906013408 | 32 | 166 | 0.0 | 0.0 | 0.00 | 0.00 | 0.00 | 60 | 1000.5 |
| 20260906012905 | 32 | 166 | 0.0 | 0.0 | 0.00 | 0.00 | 0.00 | 58 | 1000.4 |
| 20260906012404 | 32 | 166 | 0.0 | 0.0 | 0.00 | 0.00 | 0.00 | 58 | 1000.4 |
| 20260906011904 | 33 | 166 | 0.0 | 0.0 | 0.00 | 0.00 | 0.00 | 57 | 1000.2 |
| 20260906011636 | 33 | 166 | 0.0 | 0.0 | 0.00 | 0.00 | 0.00 | 57 | 1000.3 |
| 20260906010905 | 33 | 166 | 0.0 | 0.0 | 0.00 | 0.00 | 0.00 | 57 | 1000.3 |
| 20260906010404 | 33 | 166 | 0.0 | 0.0 | 0.00 | 0.00 | 0.00 | 57 | 1000.2 |
| 20260906010136 | 33 | 166 | 0.0 | 0.0 | 0.00 | 0.00 | 0.00 | 56 | 1000.1 |
| 20260906005405 | 33 | 166 | 0.0 | 0.0 | 0.00 | 0.00 | 0.00 | 55 | 1000.2 |
| 20260906004904 | 33 | 166 | 0.0 | 0.0 | 0.00 | 0.00 | 0.00 | 55 | 1000.2 |
| 20260906004404 | 33 | 166 | 0.0 | 0.0 | 0.00 | 0.00 | 0.00 | 55 | 1000.1 |
| 20260906003904 | 33 | 166 | 0.0 | 0.0 | 0.00 | 0.00 | 0.00 | 55 | 1000.2 |
| 20260906003404 | 34 | 166 | 0.0 | 0.0 | 0.00 | 0.00 | 0.00 | 54 | 1000.2 |
| 20260906002905 | 35 | 166 | 0.0 | 0.0 | 0.00 | 0.00 | 0.00 | 53 | 1000.2 |
| 20260906002635 | 35 | 166 | 0.0 | 0.0 | 0.00 | 0.00 | 0.00 | 52 | 1000.1 |
| 20260906001903 | 35 | 166 | 0.0 | 0.0 | 0.00 | 0.00 | 0.00 | 51 | 1000.1 |
| 20260906001634 | 35 | 166 | 0.0 | 0.0 | 0.00 | 0.00 | 0.00 | 51 | 1000.1 |
| 20260906001134 | 36 | 172 | 0.0 | 0.0 | 0.00 | 0.00 | 0.00 | 50 | 1000.2 |
| 20260906000403 | 36 | 165 | 0.0 | 0.0 | 0.00 | 0.00 | 0.00 | 49 | 1000.3 |
| 20260905235900 | 36 | 160 | 0.0 | 0.0 | 0.00 | 0.00 | 0.00 | 48 | 1000.3 |
| 20260905235356 | 36 | 195 | 0.0 | 0.0 | 0.00 | 0.00 | 0.00 | 47 | 1000.3 |
| 20260905234854 | 37 | 201 | 0.0 | 0.0 | 0.00 | 0.00 | 0.00 | 46 | 1000.3 |
| 20260905234353 | 37 | 103 | 0.0 | 0.0 | 0.00 | 0.00 | 0.00 | 46 | 1000.4 |
| 20260905234118 | 37 | 106 | 0.0 | 4.8 | 0.00 | 0.00 | 0.00 | 45 | 1000.4 |
| 20260905233341 | 37 | 228 | 1.6 | 4.8 | 0.00 | 0.00 | 0.00 | 45 | 1000.3 |
| 20260905232838 | 37 | 188 | 3.2 | 8.0 | 0.00 | 0.00 | 0.00 | 44 | 1000.4 |
| 20260905232338 | 37 | 89 | 3.2 | 9.7 | 0.00 | 0.00 | 0.00 | 44 | 1000.4 |
| 20260905231839 | 37 | 106 | 3.2 | 11.3 | 0.00 | 0.00 | 0.00 | 43 | 1000.4 |
| 20260905231339 | 37 | 116 | 4.8 | 11.3 | 0.00 | 0.00 | 0.00 | 43 | 1000.5 |
| 20260905230841 | 37 | 115 | 3.2 | 11.3 | 0.00 | 0.00 | 0.00 | 42 | 1000.4 |
| 20260905230837 | 37 | 145 | 4.8 | 11.3 | 0.00 | 0.00 | 0.00 | 43 | 1000.4 |
| 20260905225836 | 37 | 105 | 3.2 | 9.7 | 0.00 | 0.00 | 0.00 | 42 | 1000.4 |
| 20260905225334 | 37 | 123 | 6.4 | 17.7 | 0.00 | 0.00 | 0.00 | 41 | 1000.4 |
| 20260905224834 | 37 | 119 | 6.4 | 17.7 | 0.00 | 0.00 | 0.00 | 40 | 1000.4 |
| 20260905224334 | 38 | 105 | 4.8 | 12.9 | 0.00 | 0.00 | 0.00 | 40 | 1000.4 |
| 20260905223832 | 38 | 131 | 6.4 | 16.1 | 0.00 | 0.00 | 0.00 | 40 | 1000.4 |
| 20260905223333 | 37 | 126 | 9.7 | 16.1 | 0.00 | 0.00 | 0.00 | 40 | 1000.3 |
| 20260905222832 | 38 | 117 | 6.4 | 16.1 | 0.00 | 0.00 | 0.00 | 39 | 1000.4 |
| 20260905222604 | 38 | 68 | 6.4 | 17.7 | 0.00 | 0.00 | 0.00 | 39 | 1000.3 |
| 20260905222103 | 38 | 155 | 8.0 | 17.7 | 0.00 | 0.00 | 0.00 | 39 | 1000.3 |
| 20260905221333 | 38 | 115 | 8.0 | 16.1 | 0.00 | 0.00 | 0.00 | 39 | 1000.3 |
| 20260905221102 | 38 | 158 | 8.0 | 14.5 | 0.00 | 0.00 | 0.00 | 39 | 1000.3 |
| 20260905220326 | 38 | 212 | 4.8 | 14.5 | 0.00 | 0.00 | 0.00 | 39 | 1000.3 |
| 20260905215819 | 38 | 136 | 3.2 | 11.3 | 0.00 | 0.00 | 0.00 | 40 | 1000.3 |
| 20260905215314 | 38 | 220 | 3.2 | 11.3 | 0.00 | 0.00 | 0.00 | 40 | 1000.3 |
| 20260905214808 | 38 | 167 | 4.8 | 11.3 | 0.00 | 0.00 | 0.00 | 40 | 1000.3 |
| 20260905214302 | 38 | 154 | 4.8 | 12.9 | 0.00 | 0.00 | 0.00 | 41 | 1000.3 |
| 20260905213755 | 38 | 226 | 4.8 | 12.9 | 0.00 | 0.00 | 0.00 | 41 | 1000.4 |
| 20260905213250 | 38 | 138 | 4.8 | 11.3 | 0.00 | 0.00 | 0.00 | 42 | 1000.3 |
| 20260905212744 | 37 | 192 | 4.8 | 11.3 | 0.00 | 0.00 | 0.00 | 42 | 1000.4 |
| 20260905212237 | 37 | 131 | 4.8 | 9.7 | 0.00 | 0.00 | 0.00 | 43 | 1000.5 |
| 20260905211732 | 37 | 129 | 3.2 | 9.7 | 0.00 | 0.00 | 0.00 | 45 | 1000.5 |
| 20260905211226 | 37 | 136 | 3.2 | 9.7 | 0.00 | 0.00 | 0.00 | 46 | 1000.6 |
| 20260905210719 | 36 | 121 | 3.2 | 8.0 | 0.00 | 0.00 | 0.00 | 46 | 1000.7 |
| 20260905210445 | 36 | 198 | 3.2 | 8.0 | 0.00 | 0.00 | 0.00 | 47 | 1000.7 |
| 20260905205708 | 36 | 117 | 3.2 | 8.0 | 0.00 | 0.00 | 0.00 | 48 | 1000.8 |
| 20260905205201 | 36 | 108 | 3.2 | 8.0 | 0.00 | 0.00 | 0.00 | 48 | 1000.8 |
| 20260905205157 | 37 | 188 | 3.2 | 9.7 | 0.00 | 0.00 | 0.00 | 47 | 1000.9 |
| 20260905204150 | 37 | 205 | 3.2 | 11.3 | 0.00 | 0.00 | 0.00 | 47 | 1000.9 |
| 20260905203644 | 37 | 130 | 3.2 | 11.3 | 0.00 | 0.00 | 0.00 | 47 | 1001.1 |
| 20260905203137 | 37 | 97 | 4.8 | 17.7 | 0.00 | 0.00 | 0.00 | 47 | 1001.2 |
| 20260905202632 | 37 | 219 | 8.0 | 19.3 | 0.00 | 0.00 | 0.00 | 47 | 1001.2 |
| 20260905202125 | 37 | 139 | 6.4 | 19.3 | 0.00 | 0.00 | 0.00 | 47 | 1001.3 |
| 20260905201620 | 37 | 124 | 6.4 | 12.9 | 0.00 | 0.00 | 0.00 | 47 | 1001.3 |
| 20260905201113 | 37 | 116 | 8.0 | 16.1 | 0.00 | 0.00 | 0.00 | 45 | 1001.4 |
| 20260905200608 | 37 | 165 | 9.7 | 19.3 | 0.00 | 0.00 | 0.00 | 44 | 1001.4 |
| 20260905195555 | 38 | 104 | 8.0 | 20.9 | 0.00 | 0.00 | 0.00 | 44 | 1001.4 |
| 20260905195050 | 38 | 152 | 9.7 | 22.5 | 0.00 | 0.00 | 0.00 | 44 | 1001.6 |
| 20260905194544 | 38 | 94 | 11.3 | 22.5 | 0.00 | 0.00 | 0.00 | 44 | 1001.5 |
| 20260905194038 | 38 | 129 | 11.3 | 22.5 | 0.00 | 0.00 | 0.00 | 44 | 1001.6 |
| 20260905193533 | 38 | 309 | 9.7 | 20.9 | 0.00 | 0.00 | 0.00 | 43 | 1001.7 |
| 20260905193529 | 38 | 124 | 11.3 | 22.5 | 0.00 | 0.00 | 0.00 | 45 | 1001.7 |
| 20260905192519 | 38 | 132 | 11.3 | 22.5 | 0.00 | 0.00 | 0.00 | 46 | 1001.7 |
| 20260905192013 | 38 | 113 | 9.7 | 22.5 | 0.00 | 0.00 | 0.00 | 44 | 1001.8 |
| 20260905191512 | 38 | 134 | 9.7 | 22.5 | 0.00 | 0.00 | 0.00 | 44 | 1001.9 |
| 20260905191010 | 38 | 122 | 8.0 | 17.7 | 0.00 | 0.00 | 0.00 | 44 | 1002.0 |
| 20260905190510 | 38 | 196 | 8.0 | 20.9 | 0.00 | 0.00 | 0.00 | 43 | 1002.0 |
| 20260905190011 | 38 | 231 | 8.0 | 20.9 | 0.00 | 0.00 | 0.00 | 45 | 1002.1 |
| 20260905185508 | 39 | 113 | 8.0 | 22.5 | 0.00 | 0.00 | 0.00 | 44 | 1002.1 |
| 20260905185008 | 39 | 221 | 8.0 | 22.5 | 0.00 | 0.00 | 0.00 | 44 | 1002.2 |
| 20260905184739 | 39 | 110 | 6.4 | 16.1 | 0.00 | 0.00 | 0.00 | 44 | 1002.2 |
| 20260905184008 | 39 | 184 | 4.8 | 16.1 | 0.00 | 0.00 | 0.00 | 44 | 1002.2 |
| 20260905183507 | 38 | 142 | 6.4 | 20.9 | 0.00 | 0.00 | 0.00 | 44 | 1002.3 |
| 20260905183007 | 38 | 164 | 8.0 | 20.9 | 0.00 | 0.00 | 0.00 | 44 | 1002.3 |
| 20260905182509 | 39 | 226 | 4.8 | 14.5 | 0.00 | 0.00 | 0.00 | 43 | 1002.3 |
| 20260905182007 | 38 | 237 | 4.8 | 14.5 | 0.00 | 0.00 | 0.00 | 42 | 1002.3 |
| 20260905181508 | 39 | 238 | 3.2 | 12.9 | 0.00 | 0.00 | 0.00 | 42 | 1002.3 |
| 20260905181007 | 38 | 221 | 3.2 | 11.3 | 0.00 | 0.00 | 0.00 | 44 | 1002.4 |
| 20260905180507 | 38 | 256 | 3.2 | 11.3 | 0.00 | 0.00 | 0.00 | 43 | 1002.6 |
| 20260905180002 | 38 | 243 | 3.2 | 12.9 | 0.00 | 0.00 | 0.00 | 46 | 1002.7 |
| 20260905175501 | 37 | 11 | 6.4 | 17.7 | 0.00 | 0.00 | 0.00 | 44 | 1002.7 |
| 20260905175230 | 37 | 107 | 6.4 | 17.7 | 0.00 | 0.00 | 0.00 | 44 | 1002.8 |
| 20260905174459 | 37 | 48 | 3.2 | 16.1 | 0.00 | 0.00 | 0.00 | 43 | 1002.8 |
| 20260905174000 | 38 | 236 | 3.2 | 11.3 | 0.00 | 0.00 | 0.00 | 43 | 1002.8 |
| 20260905173458 | 37 | 228 | 4.8 | 16.1 | 0.00 | 0.00 | 0.00 | 45 | 1002.8 |
| 20260905172957 | 37 | 150 | 8.0 | 16.1 | 0.00 | 0.00 | 0.00 | 44 | 1002.9 |
| 20260905172459 | 37 | 61 | 9.7 | 17.7 | 0.00 | 0.00 | 0.00 | 45 | 1003.0 |
| 20260905171958 | 37 | 49 | 6.4 | 17.7 | 0.00 | 0.00 | 0.00 | 43 | 1003.1 |
| 20260905171729 | 38 | 342 | 3.2 | 14.5 | 0.00 | 0.00 | 0.00 | 45 | 1003.1 |
| 20260905170958 | 38 | 77 | 3.2 | 14.5 | 0.00 | 0.00 | 0.00 | 43 | 1003.2 |
| 20260905170453 | 38 | 21 | 4.8 | 14.5 | 0.00 | 0.00 | 0.00 | 43 | 1003.3 |
| 20260905170224 | 38 | 269 | 3.2 | 14.5 | 0.00 | 0.00 | 0.00 | 44 | 1003.3 |
| 20260905165724 | 37 | 354 | 3.2 | 12.9 | 0.00 | 0.00 | 0.00 | 44 | 1003.5 |
| 20260905165225 | 38 | 51 | 4.8 | 16.1 | 0.00 | 0.00 | 0.00 | 43 | 1003.6 |
| 20260905164453 | 38 | 349 | 3.2 | 16.1 | 0.00 | 0.00 | 0.00 | 42 | 1003.5 |
| 20260905163954 | 39 | 313 | 1.6 | 8.0 | 0.00 | 0.00 | 0.00 | 44 | 1003.6 |
| 20260905163453 | 38 | 321 | 1.6 | 8.0 | 0.00 | 0.00 | 0.00 | 45 | 1003.7 |
| 20260905162954 | 37 | 25 | 3.2 | 9.7 | 0.00 | 0.00 | 0.00 | 47 | 1003.7 |
| 20260905162454 | 37 | 162 | 6.4 | 16.1 | 0.00 | 0.00 | 0.00 | 49 | 1003.8 |
| 20260905161954 | 37 | 80 | 4.8 | 16.1 | 0.00 | 0.00 | 0.00 | 48 | 1003.8 |
| 20260905161454 | 38 | 333 | 3.2 | 9.7 | 0.00 | 0.00 | 0.00 | 47 | 1003.9 |
| 20260905160953 | 37 | 255 | 1.6 | 8.0 | 0.00 | 0.00 | 0.00 | 49 | 1003.8 |
| 20260905160454 | 36 | 1 | 1.6 | 8.0 | 0.00 | 0.00 | 0.00 | 50 | 1003.9 |
| 20260905155953 | 36 | 276 | 1.6 | 6.4 | 0.00 | 0.00 | 0.00 | 51 | 1003.9 |
| 20260905155455 | 36 | 252 | 6.4 | 16.1 | 0.00 | 0.00 | 0.00 | 52 | 1003.9 |
| 20260905154954 | 35 | 30 | 6.4 | 16.1 | 0.00 | 0.00 | 0.00 | 51 | 1003.9 |
| 20260905154451 | 36 | 30 | 3.2 | 16.1 | 0.00 | 0.00 | 0.00 | 52 | 1004.0 |
| 20260905154223 | 36 | 48 | 4.8 | 16.1 | 0.00 | 0.00 | 0.00 | 51 | 1004.0 |
| 20260905153451 | 36 | 244 | 4.8 | 14.5 | 0.00 | 0.00 | 0.00 | 53 | 1004.0 |
| 20260905152952 | 35 | 21 | 6.4 | 14.5 | 0.00 | 0.00 | 0.00 | 53 | 1004.0 |
| 20260905152451 | 34 | 50 | 6.4 | 11.3 | 0.00 | 0.00 | 0.00 | 55 | 1004.0 |
| 20260905151950 | 34 | 55 | 6.4 | 12.9 | 0.00 | 0.00 | 0.00 | 54 | 1004.1 |
| 20260905151449 | 35 | 51 | 4.8 | 12.9 | 0.00 | 0.00 | 0.00 | 53 | 1004.1 |
| 20260905150948 | 35 | 16 | 3.2 | 12.9 | 0.00 | 0.00 | 0.00 | 53 | 1004.1 |